Year,Month,Day,Hour,Minute,Value (Times are PST for temperature in C)
2015,09,24,00,00,11.20
2015,09,24,00,01,11.20
2015,09,24,00,02,11.20
2015,09,24,00,03,11.20
2015,09,24,00,04,11.20
2015,09,24,00,05,11.20
2015,09,24,00,06,11.20
2015,09,24,00,07,11.20
2015,09,24,00,08,11.20
2015,09,24,00,09,11.20
2015,09,24,00,10,11.20
2015,09,24,00,11,11.20
2015,09,24,00,12,11.20
2015,09,24,00,13,11.20
2015,09,24,00,14,11.20
2015,09,24,00,15,11.20
2015,09,24,00,16,11.20
2015,09,24,00,17,11.20
2015,09,24,00,18,11.20
2015,09,24,00,19,11.20
2015,09,24,00,20,11.20
2015,09,24,00,21,11.20
2015,09,24,00,22,11.20
2015,09,24,00,23,11.20
2015,09,24,00,24,11.20
2015,09,24,00,25,11.20
2015,09,24,00,26,11.30
2015,09,24,00,27,11.30
2015,09,24,00,28,11.30
2015,09,24,00,29,11.30
2015,09,24,00,30,11.30
2015,09,24,00,31,11.30
2015,09,24,00,32,11.30
2015,09,24,00,33,11.30
2015,09,24,00,34,11.30
2015,09,24,00,35,11.30
2015,09,24,00,36,11.30
2015,09,24,00,37,11.30
2015,09,24,00,38,11.30
2015,09,24,00,39,11.30
2015,09,24,00,40,11.30
2015,09,24,00,41,11.30
2015,09,24,00,42,11.30
2015,09,24,00,43,11.30
2015,09,24,00,44,11.30
2015,09,24,00,45,11.30
2015,09,24,00,46,11.30
2015,09,24,00,47,11.30
2015,09,24,00,48,11.30
2015,09,24,00,49,11.30
2015,09,24,00,50,11.30
2015,09,24,00,51,11.30
2015,09,24,00,52,11.30
2015,09,24,00,53,11.30
2015,09,24,00,54,11.30
2015,09,24,00,55,11.30
2015,09,24,00,56,11.30
2015,09,24,00,57,11.40
2015,09,24,00,58,11.40
2015,09,24,00,59,11.40
2015,09,24,01,00,11.40
2015,09,24,01,01,11.40
2015,09,24,01,02,11.40
2015,09,24,01,03,11.40
2015,09,24,01,04,11.40
2015,09,24,01,05,11.40
2015,09,24,01,06,11.40
2015,09,24,01,07,11.40
2015,09,24,01,08,11.40
2015,09,24,01,09,11.40
2015,09,24,01,10,11.40
2015,09,24,01,11,11.40
2015,09,24,01,12,11.40
2015,09,24,01,13,11.40
2015,09,24,01,14,11.40
2015,09,24,01,15,11.40
2015,09,24,01,16,11.40
2015,09,24,01,17,11.40
2015,09,24,01,18,11.40
2015,09,24,01,19,11.40
2015,09,24,01,20,11.40
2015,09,24,01,21,11.40
2015,09,24,01,22,11.40
2015,09,24,01,23,11.40
2015,09,24,01,24,11.40
2015,09,24,01,25,11.40
2015,09,24,01,26,11.40
2015,09,24,01,27,11.40
2015,09,24,01,28,11.40
2015,09,24,01,29,11.40
2015,09,24,01,30,11.40
2015,09,24,01,31,11.40
2015,09,24,01,32,11.40
2015,09,24,01,33,11.40
2015,09,24,01,34,11.40
2015,09,24,01,35,11.40
2015,09,24,01,36,11.40
2015,09,24,01,37,11.40
2015,09,24,01,38,11.40
2015,09,24,01,39,11.40
2015,09,24,01,40,11.40
2015,09,24,01,41,11.40
2015,09,24,01,42,11.40
2015,09,24,01,43,11.40
2015,09,24,01,44,11.40
2015,09,24,01,45,11.40
2015,09,24,01,46,11.40
2015,09,24,01,47,11.40
2015,09,24,01,48,11.40
2015,09,24,01,49,11.40
2015,09,24,01,50,11.40
2015,09,24,01,51,11.30
2015,09,24,01,52,11.30
2015,09,24,01,53,11.40
2015,09,24,01,54,11.30
2015,09,24,01,55,11.30
2015,09,24,01,56,11.30
2015,09,24,01,57,11.30
2015,09,24,01,58,11.30
2015,09,24,01,59,11.30
2015,09,24,02,00,11.30
2015,09,24,02,01,11.30
2015,09,24,02,02,11.30
2015,09,24,02,03,11.30
2015,09,24,02,04,11.30
2015,09,24,02,05,11.30
2015,09,24,02,06,11.30
2015,09,24,02,07,11.30
2015,09,24,02,08,11.30
2015,09,24,02,09,11.30
2015,09,24,02,10,11.30
2015,09,24,02,11,11.30
2015,09,24,02,12,11.30
2015,09,24,02,13,11.30
2015,09,24,02,14,11.30
2015,09,24,02,15,11.30
2015,09,24,02,16,11.30
2015,09,24,02,17,11.40
2015,09,24,02,18,11.40
2015,09,24,02,19,11.40
2015,09,24,02,20,11.40
2015,09,24,02,21,11.40
2015,09,24,02,22,11.40
2015,09,24,02,23,11.40
2015,09,24,02,24,11.30
2015,09,24,02,25,11.30
2015,09,24,02,26,11.30
2015,09,24,02,27,11.30
2015,09,24,02,28,11.30
2015,09,24,02,29,11.30
2015,09,24,02,30,11.30
2015,09,24,02,31,11.30
2015,09,24,02,32,11.30
2015,09,24,02,33,11.30
2015,09,24,02,34,11.30
2015,09,24,02,35,11.30
2015,09,24,02,36,11.30
2015,09,24,02,37,11.30
2015,09,24,02,38,11.30
2015,09,24,02,39,11.30
2015,09,24,02,40,11.30
2015,09,24,02,41,11.30
2015,09,24,02,42,11.30
2015,09,24,02,43,11.30
2015,09,24,02,44,11.30
2015,09,24,02,45,11.30
2015,09,24,02,46,11.30
2015,09,24,02,47,11.30
2015,09,24,02,48,11.30
2015,09,24,02,49,11.30
2015,09,24,02,50,11.30
2015,09,24,02,51,11.30
2015,09,24,02,52,11.30
2015,09,24,02,53,11.30
2015,09,24,02,54,11.30
2015,09,24,02,55,11.30
2015,09,24,02,56,11.30
2015,09,24,02,57,11.30
2015,09,24,02,58,11.30
2015,09,24,02,59,11.30
2015,09,24,03,00,11.30
2015,09,24,03,01,11.30
2015,09,24,03,02,11.30
2015,09,24,03,03,11.30
2015,09,24,03,04,11.30
2015,09,24,03,05,11.30
2015,09,24,03,06,11.30
2015,09,24,03,07,11.30
2015,09,24,03,08,11.30
2015,09,24,03,09,11.30
2015,09,24,03,10,11.30
2015,09,24,03,11,11.30
2015,09,24,03,12,11.30
2015,09,24,03,13,11.30
2015,09,24,03,14,11.30
2015,09,24,03,15,11.30
2015,09,24,03,16,11.30
2015,09,24,03,17,11.30
2015,09,24,03,18,11.30
2015,09,24,03,19,11.30
2015,09,24,03,20,11.30
2015,09,24,03,21,11.30
2015,09,24,03,22,11.30
2015,09,24,03,23,11.30
2015,09,24,03,24,11.30
2015,09,24,03,25,11.30
2015,09,24,03,26,11.30
2015,09,24,03,27,11.30
2015,09,24,03,28,11.30
2015,09,24,03,29,11.30
2015,09,24,03,30,11.30
2015,09,24,03,31,11.30
2015,09,24,03,32,11.30
2015,09,24,03,33,11.30
2015,09,24,03,34,11.30
2015,09,24,03,35,11.30
2015,09,24,03,36,11.30
2015,09,24,03,37,11.30
2015,09,24,03,38,11.30
2015,09,24,03,39,11.30
2015,09,24,03,40,11.30
2015,09,24,03,41,11.30
2015,09,24,03,42,11.30
2015,09,24,03,43,11.30
2015,09,24,03,44,11.30
2015,09,24,03,45,11.30
2015,09,24,03,46,11.30
2015,09,24,03,47,11.30
2015,09,24,03,48,11.30
2015,09,24,03,49,11.30
2015,09,24,03,50,11.30
2015,09,24,03,51,11.30
2015,09,24,03,52,11.30
2015,09,24,03,53,11.30
2015,09,24,03,54,11.30
2015,09,24,03,55,11.30
2015,09,24,03,56,11.30
2015,09,24,03,57,11.30
2015,09,24,03,58,11.30
2015,09,24,03,59,11.30
2015,09,24,04,00,11.30
2015,09,24,04,01,11.30
2015,09,24,04,02,11.30
2015,09,24,04,03,11.30
2015,09,24,04,04,11.30
2015,09,24,04,05,11.30
2015,09,24,04,06,11.30
2015,09,24,04,07,11.30
2015,09,24,04,08,11.30
2015,09,24,04,09,11.30
2015,09,24,04,10,11.30
2015,09,24,04,11,11.30
2015,09,24,04,12,11.30
2015,09,24,04,13,11.30
2015,09,24,04,14,11.30
2015,09,24,04,15,11.30
2015,09,24,04,16,11.30
2015,09,24,04,17,11.30
2015,09,24,04,18,11.30
2015,09,24,04,19,11.30
2015,09,24,04,20,11.30
2015,09,24,04,21,11.30
2015,09,24,04,22,11.30
2015,09,24,04,23,11.30
2015,09,24,04,24,11.30
2015,09,24,04,25,11.30
2015,09,24,04,26,11.30
2015,09,24,04,27,11.30
2015,09,24,04,28,11.30
2015,09,24,04,29,11.30
2015,09,24,04,30,11.30
2015,09,24,04,31,11.30
2015,09,24,04,32,11.30
2015,09,24,04,33,11.30
2015,09,24,04,34,11.30
2015,09,24,04,35,11.30
2015,09,24,04,36,11.30
2015,09,24,04,37,11.30
2015,09,24,04,38,11.30
2015,09,24,04,39,11.30
2015,09,24,04,40,11.30
2015,09,24,04,41,11.30
2015,09,24,04,42,11.30
2015,09,24,04,43,11.30
2015,09,24,04,44,11.30
2015,09,24,04,45,11.20
2015,09,24,04,46,11.30
2015,09,24,04,47,11.20
2015,09,24,04,48,11.20
2015,09,24,04,49,11.30
2015,09,24,04,50,11.20
2015,09,24,04,51,11.30
2015,09,24,04,52,11.20
2015,09,24,04,53,11.20
2015,09,24,04,54,11.20
2015,09,24,04,55,11.20
2015,09,24,04,56,11.20
2015,09,24,04,57,11.20
2015,09,24,04,58,11.20
2015,09,24,04,59,11.20
2015,09,24,05,00,11.20
2015,09,24,05,01,11.20
2015,09,24,05,02,11.20
2015,09,24,05,03,11.20
2015,09,24,05,04,11.20
2015,09,24,05,05,11.20
2015,09,24,05,06,11.20
2015,09,24,05,07,11.20
2015,09,24,05,08,11.20
2015,09,24,05,09,11.20
2015,09,24,05,10,11.20
2015,09,24,05,11,11.20
2015,09,24,05,12,11.20
2015,09,24,05,13,11.20
2015,09,24,05,14,11.20
2015,09,24,05,15,11.20
2015,09,24,05,16,11.20
2015,09,24,05,17,11.30
2015,09,24,05,18,11.20
2015,09,24,05,19,11.20
2015,09,24,05,20,11.20
2015,09,24,05,21,11.20
2015,09,24,05,22,11.20
2015,09,24,05,23,11.20
2015,09,24,05,24,11.20
2015,09,24,05,25,11.20
2015,09,24,05,26,11.20
2015,09,24,05,27,11.20
2015,09,24,05,28,11.30
2015,09,24,05,29,11.30
2015,09,24,05,30,11.30
2015,09,24,05,31,11.30
2015,09,24,05,32,11.30
2015,09,24,05,33,11.30
2015,09,24,05,34,11.30
2015,09,24,05,35,11.30
2015,09,24,05,36,11.30
2015,09,24,05,37,11.30
2015,09,24,05,38,11.30
2015,09,24,05,39,11.30
2015,09,24,05,40,11.30
2015,09,24,05,41,11.30
2015,09,24,05,42,11.30
2015,09,24,05,43,11.30
2015,09,24,05,44,11.30
2015,09,24,05,45,11.30
2015,09,24,05,46,11.30
2015,09,24,05,47,11.30
2015,09,24,05,48,11.30
2015,09,24,05,49,11.20
2015,09,24,05,50,11.30
2015,09,24,05,51,11.20
2015,09,24,05,52,11.30
2015,09,24,05,53,11.30
2015,09,24,05,54,11.30
2015,09,24,05,55,11.30
2015,09,24,05,56,11.30
2015,09,24,05,57,11.30
2015,09,24,05,58,11.30
2015,09,24,05,59,11.30
2015,09,24,06,00,11.30
2015,09,24,06,01,11.30
2015,09,24,06,02,11.30
2015,09,24,06,03,11.30
2015,09,24,06,04,11.30
2015,09,24,06,05,11.30
2015,09,24,06,06,11.30
2015,09,24,06,07,11.30
2015,09,24,06,08,11.40
2015,09,24,06,09,11.40
2015,09,24,06,10,11.40
2015,09,24,06,11,11.40
2015,09,24,06,12,11.40
2015,09,24,06,13,11.40
2015,09,24,06,14,11.40
2015,09,24,06,15,11.40
2015,09,24,06,16,11.50
2015,09,24,06,17,11.50
2015,09,24,06,18,11.50
2015,09,24,06,19,11.50
2015,09,24,06,20,11.50
2015,09,24,06,21,11.50
2015,09,24,06,22,11.50
2015,09,24,06,23,11.60
2015,09,24,06,24,11.60
2015,09,24,06,25,11.60
2015,09,24,06,26,11.60
2015,09,24,06,27,11.60
2015,09,24,06,28,11.60
2015,09,24,06,29,11.60
2015,09,24,06,30,11.60
2015,09,24,06,31,11.60
2015,09,24,06,32,11.60
2015,09,24,06,33,11.70
2015,09,24,06,34,11.70
2015,09,24,06,35,11.70
2015,09,24,06,36,11.70
2015,09,24,06,37,11.70
2015,09,24,06,38,11.70
2015,09,24,06,39,11.70
2015,09,24,06,40,11.80
2015,09,24,06,41,11.80
2015,09,24,06,42,11.80
2015,09,24,06,43,11.80
2015,09,24,06,44,11.80
2015,09,24,06,45,11.80
2015,09,24,06,46,11.90
2015,09,24,06,47,11.90
2015,09,24,06,48,11.90
2015,09,24,06,49,11.90
2015,09,24,06,50,12.00
2015,09,24,06,51,12.00
2015,09,24,06,52,12.00
2015,09,24,06,53,12.10
2015,09,24,06,54,12.10
2015,09,24,06,55,12.10
2015,09,24,06,56,12.10
2015,09,24,06,57,12.20
2015,09,24,06,58,12.20
2015,09,24,06,59,12.20
2015,09,24,07,00,12.20
2015,09,24,07,01,12.20
2015,09,24,07,02,12.20
2015,09,24,07,03,12.30
2015,09,24,07,04,12.30
2015,09,24,07,05,12.30
2015,09,24,07,06,12.40
2015,09,24,07,07,12.40
2015,09,24,07,08,12.40
2015,09,24,07,09,12.40
2015,09,24,07,10,12.40
2015,09,24,07,11,12.40
2015,09,24,07,12,12.40
2015,09,24,07,13,12.40
2015,09,24,07,14,12.40
2015,09,24,07,15,12.40
2015,09,24,07,16,12.40
2015,09,24,07,17,12.40
2015,09,24,07,18,12.40
2015,09,24,07,19,12.50
2015,09,24,07,20,12.50
2015,09,24,07,21,12.50
2015,09,24,07,22,12.60
2015,09,24,07,23,12.60
2015,09,24,07,24,12.70
2015,09,24,07,25,12.70
2015,09,24,07,26,12.80
2015,09,24,07,27,12.80
2015,09,24,07,28,12.80
2015,09,24,07,29,12.80
2015,09,24,07,30,12.80
2015,09,24,07,31,12.80
2015,09,24,07,32,12.80
2015,09,24,07,33,12.80
2015,09,24,07,34,12.80
2015,09,24,07,35,12.80
2015,09,24,07,36,12.80
2015,09,24,07,37,12.80
2015,09,24,07,38,12.80
2015,09,24,07,39,12.80
2015,09,24,07,40,12.80
2015,09,24,07,41,12.80
2015,09,24,07,42,12.80
2015,09,24,07,43,12.80
2015,09,24,07,44,12.80
2015,09,24,07,45,12.80
2015,09,24,07,46,12.80
2015,09,24,07,47,12.80
2015,09,24,07,48,12.80
2015,09,24,07,49,12.70
2015,09,24,07,50,12.70
2015,09,24,07,51,12.70
2015,09,24,07,52,12.70
2015,09,24,07,53,12.70
2015,09,24,07,54,12.70
2015,09,24,07,55,12.70
2015,09,24,07,56,12.70
2015,09,24,07,57,12.70
2015,09,24,07,58,12.70
2015,09,24,07,59,12.70
2015,09,24,08,00,12.70
2015,09,24,08,01,12.70
2015,09,24,08,02,12.70
2015,09,24,08,03,12.70
2015,09,24,08,04,12.70
2015,09,24,08,05,12.70
2015,09,24,08,06,12.70
2015,09,24,08,07,12.70
2015,09,24,08,08,12.70
2015,09,24,08,09,12.70
2015,09,24,08,10,12.70
2015,09,24,08,11,12.70
2015,09,24,08,12,12.70
2015,09,24,08,13,12.70
2015,09,24,08,14,12.70
2015,09,24,08,15,12.70
2015,09,24,08,16,12.70
2015,09,24,08,17,12.70
2015,09,24,08,18,12.70
2015,09,24,08,19,12.70
2015,09,24,08,20,12.70
2015,09,24,08,21,12.70
2015,09,24,08,22,12.70
2015,09,24,08,23,12.70
2015,09,24,08,24,12.70
2015,09,24,08,25,12.70
2015,09,24,08,26,12.70
2015,09,24,08,27,12.70
2015,09,24,08,28,12.70
2015,09,24,08,29,12.70
2015,09,24,08,30,12.70
2015,09,24,08,31,12.70
2015,09,24,08,32,12.70
2015,09,24,08,33,12.70
2015,09,24,08,34,12.70
2015,09,24,08,35,12.70
2015,09,24,08,36,12.70
2015,09,24,08,37,12.70
2015,09,24,08,38,12.60
2015,09,24,08,39,12.60
2015,09,24,08,40,12.60
2015,09,24,08,41,12.60
2015,09,24,08,42,12.60
2015,09,24,08,43,12.60
2015,09,24,08,44,12.60
2015,09,24,08,45,12.60
2015,09,24,08,46,12.70
2015,09,24,08,47,12.70
2015,09,24,08,48,12.70
2015,09,24,08,49,12.70
2015,09,24,08,50,12.70
2015,09,24,08,51,12.70
2015,09,24,08,52,12.70
2015,09,24,08,53,12.70
2015,09,24,08,54,12.70
2015,09,24,08,55,12.70
2015,09,24,08,56,12.70
2015,09,24,08,57,12.70
2015,09,24,08,58,12.70
2015,09,24,08,59,12.70
2015,09,24,09,00,12.70
2015,09,24,09,01,12.80
2015,09,24,09,02,12.80
2015,09,24,09,03,12.80
2015,09,24,09,04,12.80
2015,09,24,09,05,12.80
2015,09,24,09,06,12.80
2015,09,24,09,07,12.80
2015,09,24,09,08,12.80
2015,09,24,09,09,12.90
2015,09,24,09,10,12.90
2015,09,24,09,11,12.90
2015,09,24,09,12,12.90
2015,09,24,09,13,12.90
2015,09,24,09,14,12.90
2015,09,24,09,15,12.90
2015,09,24,09,16,12.90
2015,09,24,09,17,12.90
2015,09,24,09,18,12.90
2015,09,24,09,19,12.90
2015,09,24,09,20,12.90
2015,09,24,09,21,12.90
2015,09,24,09,22,12.90
2015,09,24,09,23,12.90
2015,09,24,09,24,12.90
2015,09,24,09,25,12.90
2015,09,24,09,26,12.90
2015,09,24,09,27,12.90
2015,09,24,09,28,12.90
2015,09,24,09,29,12.90
2015,09,24,09,30,12.90
2015,09,24,09,31,12.90
2015,09,24,09,32,12.90
2015,09,24,09,33,12.90
2015,09,24,09,34,12.90
2015,09,24,09,35,12.90
2015,09,24,09,36,12.90
2015,09,24,09,37,12.90
2015,09,24,09,38,12.90
2015,09,24,09,39,12.90
2015,09,24,09,40,12.90
2015,09,24,09,41,12.90
2015,09,24,09,42,12.80
2015,09,24,09,43,12.80
2015,09,24,09,44,12.80
2015,09,24,09,45,12.80
2015,09,24,09,46,12.80
2015,09,24,09,47,12.80
2015,09,24,09,48,12.80
2015,09,24,09,49,12.80
2015,09,24,09,50,12.80
2015,09,24,09,51,12.80
2015,09,24,09,52,12.80
2015,09,24,09,53,12.80
2015,09,24,09,54,12.80
2015,09,24,09,55,12.80
2015,09,24,09,56,12.80
2015,09,24,09,57,12.80
2015,09,24,09,58,12.80
2015,09,24,09,59,12.80
2015,09,24,10,00,12.80
2015,09,24,10,01,12.80
2015,09,24,10,02,12.80
2015,09,24,10,03,12.80
2015,09,24,10,04,12.80
2015,09,24,10,05,12.80
2015,09,24,10,06,12.80
2015,09,24,10,07,12.80
2015,09,24,10,08,12.80
2015,09,24,10,09,12.80
2015,09,24,10,10,12.80
2015,09,24,10,11,12.80
2015,09,24,10,12,12.80
2015,09,24,10,13,12.80
2015,09,24,10,14,12.90
2015,09,24,10,15,12.90
2015,09,24,10,16,12.90
2015,09,24,10,17,12.90
2015,09,24,10,18,12.90
2015,09,24,10,19,12.90
2015,09,24,10,20,12.90
2015,09,24,10,21,13.00
2015,09,24,10,22,13.00
2015,09,24,10,23,13.00
2015,09,24,10,24,13.10
2015,09,24,10,25,13.10
2015,09,24,10,26,13.10
2015,09,24,10,27,13.10
2015,09,24,10,28,13.10
2015,09,24,10,29,13.10
2015,09,24,10,30,13.10
2015,09,24,10,31,13.10
2015,09,24,10,32,13.20
2015,09,24,10,33,13.20
2015,09,24,10,34,13.20
2015,09,24,10,35,13.20
2015,09,24,10,36,13.20
2015,09,24,10,37,13.30
2015,09,24,10,38,13.30
2015,09,24,10,39,13.30
2015,09,24,10,40,13.30
2015,09,24,10,41,13.30
2015,09,24,10,42,13.40
2015,09,24,10,43,13.40
2015,09,24,10,44,13.40
2015,09,24,10,45,13.40
2015,09,24,10,46,13.50
2015,09,24,10,47,13.50
2015,09,24,10,48,13.60
2015,09,24,10,49,13.60
2015,09,24,10,50,13.70
2015,09,24,10,51,13.70
2015,09,24,10,52,13.70
2015,09,24,10,53,13.70
2015,09,24,10,54,13.80
2015,09,24,10,55,13.80
2015,09,24,10,56,13.80
2015,09,24,10,57,13.80
2015,09,24,10,58,13.80
2015,09,24,10,59,13.80
2015,09,24,11,00,13.80
2015,09,24,11,01,13.80
2015,09,24,11,02,13.80
2015,09,24,11,03,13.80
2015,09,24,11,04,13.80
2015,09,24,11,05,13.80
2015,09,24,11,06,13.80
2015,09,24,11,07,13.80
2015,09,24,13,56,13.30
2015,09,24,13,57,13.30
2015,09,24,13,58,13.30
2015,09,24,13,59,13.30
2015,09,24,14,00,13.30
2015,09,24,14,01,13.30
2015,09,24,14,02,13.30
2015,09,24,14,03,13.40
2015,09,24,14,04,13.40
2015,09,24,14,05,13.40
2015,09,24,14,06,13.40
2015,09,24,14,07,13.40
2015,09,24,14,08,13.40
2015,09,24,14,09,13.40
2015,09,24,14,10,13.40
2015,09,24,14,11,13.40
2015,09,24,14,12,13.40
2015,09,24,14,13,13.50
2015,09,24,14,14,13.50
2015,09,24,14,15,13.50
2015,09,24,14,16,13.50
2015,09,24,14,17,13.50
2015,09,24,14,18,13.50
2015,09,24,14,19,13.50
2015,09,24,14,20,13.50
2015,09,24,14,21,13.50
2015,09,24,14,22,13.50
2015,09,24,14,23,13.50
2015,09,24,14,24,13.50
2015,09,24,14,25,13.50
2015,09,24,14,26,13.50
2015,09,24,14,27,13.50
2015,09,24,15,18,13.50
2015,09,24,15,19,13.50
2015,09,24,15,20,13.50
2015,09,24,15,21,13.50
2015,09,24,15,22,13.50
2015,09,24,15,23,13.50
2015,09,24,15,24,13.50
2015,09,24,15,25,13.50
2015,09,24,15,26,13.60
2015,09,24,15,27,13.60
2015,09,24,15,28,13.60
2015,09,24,15,29,13.60
2015,09,24,15,30,13.60
2015,09,24,15,31,13.60
2015,09,24,15,32,13.60
2015,09,24,15,33,13.60
2015,09,24,15,34,13.60
2015,09,24,15,35,13.60
2015,09,24,15,36,13.60
2015,09,24,15,37,13.60
2015,09,24,15,38,13.60
2015,09,24,15,39,13.60
2015,09,24,15,40,13.60
2015,09,24,15,41,13.60
2015,09,24,15,42,13.70
2015,09,24,15,43,13.70
2015,09,24,15,44,13.70
2015,09,24,15,45,13.70
2015,09,24,15,46,13.70
2015,09,24,15,47,13.70
2015,09,24,15,48,13.70
2015,09,24,15,49,13.70
2015,09,24,15,50,13.70
2015,09,24,15,51,13.70
2015,09,24,15,52,13.70
2015,09,24,15,53,13.80
2015,09,24,15,54,13.80
2015,09,24,15,55,13.80
2015,09,24,15,56,13.80
2015,09,24,15,57,13.80
2015,09,24,15,58,13.80
2015,09,24,15,59,13.80
2015,09,24,16,00,13.80
2015,09,24,16,01,13.80
2015,09,24,16,02,13.80
2015,09,24,16,03,13.80
2015,09,24,16,04,13.80
2015,09,24,16,05,13.80
2015,09,24,16,06,13.90
2015,09,24,16,07,13.90
2015,09,24,16,08,13.90
2015,09,24,16,09,13.90
2015,09,24,16,10,13.90
2015,09,24,16,11,13.90
2015,09,24,16,12,13.90
2015,09,24,16,13,13.90
2015,09,24,16,14,13.90
2015,09,24,16,15,14.00
2015,09,24,16,16,14.00
2015,09,24,16,17,14.00
2015,09,24,16,18,14.00
2015,09,24,16,19,14.00
2015,09,24,16,20,14.00
2015,09,24,16,21,14.00
2015,09,24,16,22,14.10
2015,09,24,16,23,14.10
2015,09,24,16,24,14.10
2015,09,24,16,25,14.10
2015,09,24,16,26,14.10
2015,09,24,16,27,14.10
2015,09,24,16,28,14.10
2015,09,24,16,29,14.10
2015,09,24,16,30,14.10
2015,09,24,16,31,14.10
2015,09,24,16,32,14.10
2015,09,24,16,33,14.10
2015,09,24,16,34,14.10
2015,09,24,16,35,14.10
2015,09,24,16,36,14.10
2015,09,24,16,37,14.10
2015,09,24,16,38,14.10
2015,09,24,16,39,14.10
2015,09,24,16,40,14.10
2015,09,24,16,41,14.10
2015,09,24,16,42,14.10
2015,09,24,16,43,14.10
2015,09,24,16,44,14.10
2015,09,24,16,45,14.10
2015,09,24,16,46,14.10
2015,09,24,16,47,14.00
2015,09,24,16,48,14.00
2015,09,24,16,49,14.00
2015,09,24,16,50,14.00
2015,09,24,16,51,14.00
2015,09,24,16,52,14.00
2015,09,24,16,53,14.00
2015,09,24,16,54,14.00
2015,09,24,16,55,13.90
2015,09,24,16,56,14.00
2015,09,24,16,57,13.90
2015,09,24,16,58,13.90
2015,09,24,16,59,13.90
2015,09,24,17,00,13.90
2015,09,24,17,01,13.90
2015,09,24,17,02,13.90
2015,09,24,17,03,14.00
2015,09,24,17,04,13.90
2015,09,24,17,05,13.90
2015,09,24,17,06,14.00
2015,09,24,17,07,14.00
2015,09,24,17,08,13.90
2015,09,24,17,09,13.90
2015,09,24,17,10,13.90
2015,09,24,17,11,13.90
2015,09,24,17,12,13.90
2015,09,24,17,13,14.00
2015,09,24,17,14,13.90
2015,09,24,17,15,13.90
2015,09,24,17,16,14.00
2015,09,24,17,17,14.00
2015,09,24,17,18,13.90
2015,09,24,17,19,13.90
2015,09,24,17,20,13.90
2015,09,24,17,21,13.90
2015,09,24,17,22,13.90
2015,09,24,17,23,13.90
2015,09,24,17,24,13.90
2015,09,24,17,25,13.90
2015,09,24,17,26,13.90
2015,09,24,17,27,13.90
2015,09,24,17,28,13.90
2015,09,24,17,29,13.90
2015,09,24,17,30,13.90
2015,09,24,17,31,13.90
2015,09,24,17,32,13.90
2015,09,24,17,33,13.90
2015,09,24,17,34,13.90
2015,09,24,17,35,13.90
2015,09,24,17,36,13.90
2015,09,24,17,37,13.90
2015,09,24,17,38,13.90
2015,09,24,17,39,13.90
2015,09,24,17,40,13.90
2015,09,24,17,41,13.90
2015,09,24,17,42,13.90
2015,09,24,17,43,13.90
2015,09,24,17,44,13.90
2015,09,24,17,45,13.90
2015,09,24,17,46,13.90
2015,09,24,17,47,13.90
2015,09,24,17,48,13.90
2015,09,24,17,49,13.90
2015,09,24,17,50,13.90
2015,09,24,17,51,13.90
2015,09,24,17,52,13.90
2015,09,24,17,53,13.90
2015,09,24,17,54,13.80
2015,09,24,17,55,13.80
2015,09,24,17,56,13.80
2015,09,24,17,57,13.80
2015,09,24,17,58,13.80
2015,09,24,17,59,13.80
2015,09,24,18,00,13.80
2015,09,24,18,01,13.80
2015,09,24,18,02,13.80
2015,09,24,18,03,13.80
2015,09,24,18,04,13.80
2015,09,24,18,05,13.70
2015,09,24,18,06,13.70
2015,09,24,18,07,13.70
2015,09,24,18,08,13.70
2015,09,24,18,09,13.70
2015,09,24,18,10,13.70
2015,09,24,18,11,13.70
2015,09,24,18,12,13.70
2015,09,24,18,13,13.70
2015,09,24,18,14,13.70
2015,09,24,18,15,13.70
2015,09,24,18,16,13.70
2015,09,24,18,17,13.70
2015,09,24,18,18,13.70
2015,09,24,18,19,13.70
2015,09,24,18,20,13.70
2015,09,24,18,21,13.70
2015,09,24,18,22,13.70
2015,09,24,18,23,13.70
2015,09,24,18,24,13.60
2015,09,24,18,25,13.60
2015,09,24,18,26,13.60
2015,09,24,18,27,13.60
2015,09,24,18,28,13.60
2015,09,24,18,29,13.60
2015,09,24,18,30,13.60
2015,09,24,18,31,13.60
2015,09,24,18,32,13.60
2015,09,24,18,33,13.60
2015,09,24,18,34,13.60
2015,09,24,18,35,13.60
2015,09,24,18,36,13.60
2015,09,24,18,37,13.60
2015,09,24,18,38,13.70
2015,09,24,18,39,13.60
2015,09,24,18,40,13.60
2015,09,24,18,41,13.70
2015,09,24,18,42,13.60
2015,09,24,18,43,13.60
2015,09,24,18,44,13.60
2015,09,24,18,45,13.60
2015,09,24,18,46,13.60
2015,09,24,18,47,13.60
2015,09,24,18,48,13.60
2015,09,24,18,49,13.60
2015,09,24,18,50,13.60
2015,09,24,18,51,13.60
2015,09,24,18,52,13.60
2015,09,24,18,53,13.60
2015,09,24,18,54,13.60
2015,09,24,18,55,13.60
2015,09,24,18,56,13.60
2015,09,24,18,57,13.60
2015,09,24,18,58,13.60
2015,09,24,18,59,13.60
2015,09,24,19,00,13.60
2015,09,24,19,01,13.60
2015,09,24,19,02,13.50
2015,09,24,19,03,13.60
2015,09,24,19,04,13.60
2015,09,24,19,05,13.50
2015,09,24,19,06,13.50
2015,09,24,19,07,13.50
2015,09,24,19,08,13.50
2015,09,24,19,09,13.50
2015,09,24,19,10,13.50
2015,09,24,19,11,13.50
2015,09,24,19,12,13.50
2015,09,24,19,13,13.50
2015,09,24,19,14,13.50
2015,09,24,19,15,13.50
2015,09,24,19,16,13.50
2015,09,24,19,17,13.50
2015,09,24,19,18,13.50
2015,09,24,19,19,13.50
2015,09,24,19,20,13.50
2015,09,24,19,21,13.50
2015,09,24,19,22,13.50
2015,09,24,19,23,13.50
2015,09,24,19,24,13.50
2015,09,24,19,25,13.50
2015,09,24,19,26,13.50
2015,09,24,19,27,13.60
2015,09,24,19,28,13.60
2015,09,24,19,29,13.60
2015,09,24,19,30,13.60
2015,09,24,19,31,13.60
2015,09,24,19,32,13.60
2015,09,24,19,33,13.60
2015,09,24,19,34,13.60
2015,09,24,19,35,13.60
2015,09,24,19,36,13.60
2015,09,24,19,37,13.60
2015,09,24,19,38,13.60
2015,09,24,19,39,13.60
2015,09,24,19,40,13.60
2015,09,24,19,41,13.60
2015,09,24,19,42,13.60
2015,09,24,19,43,13.60
2015,09,24,19,44,13.60
2015,09,24,19,45,13.50
2015,09,24,19,46,13.50
2015,09,24,19,47,13.50
2015,09,24,19,48,13.50
2015,09,24,19,49,13.50
2015,09,24,19,50,13.50
2015,09,24,19,51,13.50
2015,09,24,19,52,13.50
2015,09,24,19,53,13.50
2015,09,24,19,54,13.40
2015,09,24,19,55,13.50
2015,09,24,19,56,13.50
2015,09,24,19,57,13.50
2015,09,24,19,58,13.50
2015,09,24,19,59,13.50
2015,09,24,20,00,13.50
2015,09,24,20,01,13.50
2015,09,24,20,02,13.50
2015,09,24,20,03,13.50
2015,09,24,20,04,13.50
2015,09,24,20,05,13.50
2015,09,24,20,06,13.40
2015,09,24,20,07,13.40
2015,09,24,20,08,13.40
2015,09,24,20,09,13.40
2015,09,24,20,10,13.40
2015,09,24,20,11,13.40
2015,09,24,20,12,13.40
2015,09,24,20,13,13.40
2015,09,24,20,14,13.40
2015,09,24,20,15,13.40
2015,09,24,20,16,13.40
2015,09,24,20,17,13.40
2015,09,24,20,18,13.40
2015,09,24,20,19,13.40
2015,09,24,20,20,13.40
2015,09,24,20,21,13.40
2015,09,24,20,22,13.40
2015,09,24,20,23,13.40
2015,09,24,20,24,13.40
2015,09,24,20,25,13.40
2015,09,24,20,26,13.40
2015,09,24,20,27,13.40
2015,09,24,20,28,13.40
2015,09,24,20,29,13.40
2015,09,24,20,30,13.40
2015,09,24,20,31,13.40
2015,09,24,20,32,13.40
2015,09,24,20,33,13.40
2015,09,24,20,34,13.40
2015,09,24,20,35,13.40
2015,09,24,20,36,13.40
2015,09,24,20,37,13.40
2015,09,24,20,38,13.40
2015,09,24,20,39,13.30
2015,09,24,20,40,13.30
2015,09,24,20,41,13.40
2015,09,24,20,42,13.40
2015,09,24,20,43,13.40
2015,09,24,20,44,13.40
2015,09,24,20,45,13.40
2015,09,24,20,46,13.40
2015,09,24,20,47,13.40
2015,09,24,20,48,13.40
2015,09,24,20,49,13.40
2015,09,24,20,50,13.40
2015,09,24,20,51,13.40
2015,09,24,20,52,13.40
2015,09,24,20,53,13.40
2015,09,24,20,54,13.40
2015,09,24,20,55,13.40
2015,09,24,20,56,13.40
2015,09,24,20,57,13.40